COSMOS 2389 (27436 NORAD) Tracking and Keplerian Element Data

This shows tracking and keplerian element data for the satellite.

Feedback or suggestion? Click here.




ElementValue
Catalog27436
NameCOSMOS 2389
Epoch Orbit18248
Epoch Day353.9752156
Epoch Year2025
RAAN301.6284
Inclination82.9508
Eccentricity0.0047366
Argument of Perigee41.0478
Mean Anonmoly28.5622
Mean Motion13.75155401
Decay Rate4.5E-07
L11 27436U 02026A 25353.97521560 .00000045 00000+0 30288-4 0 9998
L22 27436 82.9508 301.6284 0047366 41.0478 28.5622 13.75155401182480



Live tracking and technical data element details for COSMOS 2389 (NORAD 27436). COSMOS 2389 can be tracked NOW for your location showing map with azimuth and elevation plus other details from your city location.







IsCatalogInMostPopularTable: catalog: 27436, numindb: 401
Update: records affected: 1



GetName: 27436 COSMOS 2389

Hit Count: updated at: Sat, 14 Mar 2026 01:54:11 GMT